Location: Oakhurst
(33.6448°N, 111.9543°W)
Time: 06:56:28
(UTC+00:00)

SPROUT - Visible Passes

Search period start: 29 July 2021 00:00
Search period end: 08 August 2021 00:00
Orbit: 595 x 609 km, 97.9° (Epoch: 28 July)

Date Brightness Start Highest point End Pass type
(mag) Time Alt. Az. Time Alt. Az. Time Alt. Az.
29 Jul ? 07:10:10 10° NNE 07:10:10 10° NNE 07:10:10 10° NNE visible
30 Jul ? 07:22:13 11° NNE 07:22:13 11° NNE 07:22:28 10° NNE visible
31 Jul ? 07:34:16 12° N 07:34:16 12° N 07:34:36 10° N visible
01 Aug ? 07:46:18 12° N 07:46:18 12° N 07:46:38 10° N visible
02 Aug ? 07:58:21 11° N 07:58:21 11° N 07:58:34 10° N visible
03 Aug ? 08:10:23 10° NNW 08:10:23 10° NNW 08:10:25 10° NNW visible
